Weather History for KVKY - May, 2014

Change the Weather History Date:

Sunday, May 4, 2014

  Actual Average Record
Temperature  
Mean Temperature 72 °F -  
Max Temperature 75 °F - - ()
Min Temperature 69 °F - - ()
Cooling Degree Days 7    
Growing Degree Days 22 (Base 50)    
Moisture  
Dew Point 64 °F    
Average Humidity 78    
Maximum Humidity 83    
Minimum Humidity 69    
Precipitation  
Precipitation 0.00 in - - ()
Sea Level Pressure  
Sea Level Pressure 30.12 in    
Wind  
Wind Speed 15 mph (WNW)    
Max Wind Speed 22 mph    
Max Gust Speed -    
Visibility 10 miles    
Events      
Averages and records for this station are not official NWS values.
T = Trace of Precipitation, MM = Missing Value Source: NWS Daily Summary

Daily Weather History Graph

Daily Weather History Graph

Search for Another Location

Airport or City:

Trip Planner

Search our weather history database for the weather conditions in past years. The results will help you decide how hot, cold, wet, or windy it might be!

Date:

Astronomy

May. 04, 2014 Rise Set
Actual Time 6:09 AM CDT 7:31 PM CDT
Civil Twilight 5:44 AM CDT 7:57 PM CDT
Nautical Twilight 5:14 AM CDT 8:27 PM CDT
Astronomical Twilight 4:42 AM CDT 8:58 PM CDT
Moon 10:35 AM CDT (5/4) No Moon Set
Length of Visible Light 14h 13m
Length of Day
13h 22m
Waxing Crescent, 28% of the Moon is Illuminated
May 4
Waxing Crescent
May 6
First Quarter
May 14
Full
May 21
Last Quarter
May 28
New

Hourly Weather History & Observations

Time (CDT) Temp. Dew Point Humidity Pressure Visibility Wind Dir Wind Speed Gust Speed Precip Events Conditions
12:15 AM 71.6 °F 60.8 °F 69% 30.13 in 10.0 mi West 18.4 mph - N/A   Clear
12:35 AM 71.6 °F 62.6 °F 73% 30.12 in 10.0 mi WSW 18.4 mph - N/A   Clear
12:55 AM 71.6 °F 62.6 °F 73% 30.12 in 10.0 mi West 17.3 mph - N/A   Clear
1:15 AM 71.6 °F 62.6 °F 73% 30.11 in 10.0 mi West 18.4 mph - N/A   Clear
1:35 AM 71.6 °F 62.6 °F 73% 30.11 in 10.0 mi West 19.6 mph - N/A   Clear
1:55 AM 71.6 °F 62.6 °F 73% 30.11 in 10.0 mi West 20.7 mph - N/A   Clear
2:15 AM 71.6 °F 64.4 °F 78% 30.11 in 10.0 mi West 21.9 mph - N/A   Clear
2:35 AM 71.6 °F 64.4 °F 78% 30.10 in 10.0 mi West 20.7 mph - N/A   Clear
2:55 AM 71.6 °F 64.4 °F 78% 30.10 in 10.0 mi West 20.7 mph - N/A   Clear
3:15 AM 69.8 °F 64.4 °F 83% 30.10 in 10.0 mi West 20.7 mph - N/A   Clear
3:35 AM 69.8 °F 64.4 °F 83% 30.10 in 10.0 mi West 20.7 mph - N/A   Clear
3:55 AM 69.8 °F 64.4 °F 83% 30.10 in 10.0 mi West 19.6 mph - N/A   Clear
4:15 AM 69.8 °F 64.4 °F 83% 30.10 in 10.0 mi West 18.4 mph - N/A   Clear
4:35 AM 69.8 °F 64.4 °F 83% 30.11 in 10.0 mi West 18.4 mph - N/A   Clear
4:55 AM 69.8 °F 64.4 °F 83% 30.10 in 10.0 mi WNW 17.3 mph - N/A   Clear
5:15 AM 69.8 °F 62.6 °F 78% 30.11 in 10.0 mi WNW 17.3 mph - N/A   Clear
5:35 AM 71.6 °F 62.6 °F 73% 30.12 in 10.0 mi WNW 17.3 mph - N/A   Clear
5:55 AM 69.8 °F 62.6 °F 78% 30.12 in 10.0 mi WNW 16.1 mph - N/A   Clear
6:15 AM 69.8 °F 62.6 °F 78% 30.13 in 10.0 mi WNW 16.1 mph - N/A   Clear
6:35 AM 69.8 °F 64.4 °F 83% 30.13 in 10.0 mi NW 15.0 mph - N/A   Clear
6:55 AM 69.8 °F 64.4 °F 83% 30.14 in 10.0 mi NW 13.8 mph - N/A   Clear
7:15 AM 69.8 °F 62.6 °F 78% 30.14 in 10.0 mi NW 13.8 mph - N/A   Clear
7:35 AM 69.8 °F 62.6 °F 78% 30.14 in 10.0 mi NW 16.1 mph - N/A   Clear
7:55 AM 69.8 °F 64.4 °F 83% 30.15 in 10.0 mi NW 13.8 mph - N/A   Clear
8:15 AM 69.8 °F 64.4 °F 83% 30.15 in 10.0 mi NW 13.8 mph - N/A   Clear
8:35 AM 69.8 °F 64.4 °F 83% 30.16 in 10.0 mi NW 12.7 mph - N/A   Clear
8:55 AM 69.8 °F 64.4 °F 83% 30.16 in 10.0 mi NW 13.8 mph - N/A   Clear
9:15 AM 69.8 °F 64.4 °F 83% 30.16 in 10.0 mi NW 12.7 mph - N/A   Clear
9:35 AM 69.8 °F 64.4 °F 83% 30.17 in 10.0 mi WNW 11.5 mph - N/A   Clear
9:55 AM 69.8 °F 64.4 °F 83% 30.17 in 10.0 mi WNW 11.5 mph - N/A   Clear
10:15 AM 71.6 °F 62.6 °F 73% 30.17 in 10.0 mi NW 11.5 mph - N/A   Clear
10:35 AM 69.8 °F 64.4 °F 83% 30.17 in 10.0 mi NW 11.5 mph - N/A   Clear
10:55 AM 71.6 °F 64.4 °F 78% 30.17 in 10.0 mi NW 9.2 mph - N/A   Clear
11:15 AM 71.6 °F 64.4 °F 78% 30.17 in 10.0 mi NW 10.4 mph - N/A   Clear
11:35 AM 71.6 °F 64.4 °F 78% 30.17 in 10.0 mi NW 10.4 mph - N/A   Clear
11:55 AM 71.6 °F 64.4 °F 78% 30.17 in 10.0 mi NW 10.4 mph - N/A   Clear
12:15 PM 71.6 °F 64.4 °F 78% 30.16 in 10.0 mi WNW 10.4 mph - N/A   Clear
12:35 PM 71.6 °F 64.4 °F 78% 30.16 in 10.0 mi WNW 11.5 mph - N/A   Clear
12:55 PM 71.6 °F 64.4 °F 78% 30.15 in 10.0 mi WNW 9.2 mph - N/A   Clear
1:15 PM 71.6 °F 64.4 °F 78% 30.15 in 10.0 mi WNW 8.1 mph - N/A   Clear
1:35 PM 71.6 °F 64.4 °F 78% 30.14 in 10.0 mi WNW 9.2 mph - N/A   Clear
1:55 PM 71.6 °F 64.4 °F 78% 30.14 in 10.0 mi WNW 9.2 mph - N/A   Clear
2:15 PM 71.6 °F 64.4 °F 78% 30.13 in 10.0 mi NW 8.1 mph - N/A   Clear
2:35 PM 71.6 °F 64.4 °F 78% 30.12 in 10.0 mi NW 6.9 mph - N/A   Clear
2:55 PM 71.6 °F 64.4 °F 78% 30.12 in 10.0 mi NW 6.9 mph - N/A   Clear
3:15 PM 71.6 °F 64.4 °F 78% 30.10 in 10.0 mi NW 8.1 mph - N/A   Clear
3:35 PM 71.6 °F 64.4 °F 78% 30.10 in 10.0 mi WNW 6.9 mph - N/A   Clear
3:55 PM 71.6 °F 64.4 °F 78% 30.10 in 10.0 mi WNW 6.9 mph - N/A   Clear
4:15 PM 71.6 °F 64.4 °F 78% 30.09 in 10.0 mi WNW 5.8 mph - N/A   Clear
4:35 PM 73.4 °F 64.4 °F 73% 30.09 in - WNW 5.8 mph - N/A   Clear
4:55 PM 73.4 °F 64.4 °F 73% 30.09 in 10.0 mi West 5.8 mph - N/A   Clear
5:15 PM 75.2 °F 64.4 °F 69% 30.09 in 10.0 mi West 6.9 mph - N/A   Clear
5:35 PM 75.2 °F 64.4 °F 69% 30.09 in 10.0 mi WSW 8.1 mph - N/A   Clear
5:55 PM 75.2 °F 64.4 °F 69% 30.08 in 10.0 mi WSW 8.1 mph - N/A   Clear
6:15 PM 75.2 °F 64.4 °F 69% 30.09 in 10.0 mi WSW 9.2 mph - N/A   Clear
6:35 PM 75.2 °F 64.4 °F 69% 30.09 in 10.0 mi SW 10.4 mph - N/A   Clear
6:55 PM 73.4 °F 64.4 °F 73% 30.09 in 10.0 mi SW 12.7 mph - N/A   Clear
7:15 PM 73.4 °F 66.2 °F 78% 30.09 in 10.0 mi SW 12.7 mph - N/A   Clear
7:35 PM 73.4 °F 66.2 °F 78% 30.09 in 10.0 mi WSW 11.5 mph - N/A   Clear
7:55 PM 73.4 °F 66.2 °F 78% 30.10 in 10.0 mi WSW 12.7 mph - N/A   Clear
8:15 PM 73.4 °F 66.2 °F 78% 30.10 in 10.0 mi WSW 13.8 mph - N/A   Clear
8:35 PM 73.4 °F 66.2 °F 78% 30.10 in 10.0 mi WSW 13.8 mph - N/A   Clear
8:55 PM 73.4 °F 68.0 °F 83% 30.10 in 10.0 mi WSW 13.8 mph - N/A   Clear
9:15 PM 73.4 °F 66.2 °F 78% 30.10 in 10.0 mi West 12.7 mph - N/A   Clear
9:35 PM 71.6 °F 66.2 °F 83% 30.11 in 10.0 mi West 12.7 mph - N/A   Clear
9:55 PM 71.6 °F 66.2 °F 83% 30.11 in 10.0 mi West 12.7 mph - N/A   Clear
10:15 PM 71.6 °F 66.2 °F 83% 30.11 in 10.0 mi West 10.4 mph - N/A   Clear
10:35 PM 71.6 °F 66.2 °F 83% 30.11 in 10.0 mi West 9.2 mph - N/A   Clear
10:55 PM 71.6 °F 66.2 °F 83% 30.12 in 10.0 mi West 10.4 mph - N/A   Clear
11:15 PM 71.6 °F 66.2 °F 83% 30.12 in 10.0 mi WSW 12.7 mph - N/A   Clear
11:35 PM 71.6 °F 66.2 °F 83% 30.11 in 10.0 mi West 12.7 mph - N/A   Clear
11:55 PM 71.6 °F 66.2 °F 83% 30.11 in 10.0 mi West 13.8 mph - N/A   Clear